Home   Weather   Virginia Beach   Past weeks

Flag for USA Past Weather in Virginia Beach, Virginia, USA — Yesterday and Last 2 Weeks

Now
68 °F

Partly sunny.


Feels Like: 68 °F
Forecast: 55 / 69 °F
Wind: 6 mph from South

Location: Virginia Beach - Oceana

Current Time: Feb 23, 2017 at 1:52:13 pm

Latest Report: Feb 23, 2017 at 12:56 pm


Visibility: 10 mi

Pressure: 29.93 "Hg

Humidity: 65%

Dew Point: 56 °F

Location of Virginia BeachLocation

Past Weather in Virginia Beach — Graph

°F

Virginia Beach Temperature Yesterday

Maximum temperature yesterday: 67 °F (at 12:56 pm)
Minimum temperature yesterday: 45 °F (at 12:56 am)
Average temperature yesterday: 57 °F

High & Low Weather Summary for the Past Weeks

 TemperatureHumidityPressure
High82 °F (Feb 12, 2:56 pm)100% (Feb 13, 12:56 pm)30.47 "Hg (Feb 13, 12:56 pm)
Low22 °F (Feb 10, 6:56 am)24% (Feb 10, 3:56 pm)29.39 "Hg (Feb 9, 5:36 am)
Average49 °F59%29.94 "Hg
* Reported Feb 8 11:56 am — Feb 23 11:56 am, Virginia Beach, Weather by CustomWeather, © 2017

Note: Actual official high and low records may vary slightly from our data, if they occured in-between our weather recording intervals... More about our weather records

Advertising

Virginia Beach Weather History for the Previous 24 Hours

Scroll right to see more
 ConditionsComfort  
Time TempWeatherWind HumidityBarometerVisibility
11:56 am
Thu, Feb 23
65 °FPartly sunny.5 mph78%29.96 "Hg10 mi
10:56 am63 °FPartly sunny.3 mph78%29.98 "Hg10 mi
9:56 am60 °FPartly sunny.5 mph83%29.98 "Hg10 mi
8:56 am59 °FPartly sunny.3 mph90%29.98 "Hg10 mi
7:56 am57 °FMostly cloudy.3 mph96%29.96 "Hg10 mi
6:56 am55 °FLight rain. Mostly cloudy.No wind93%29.96 "Hg10 mi
5:56 am56 °FLight rain. Mostly cloudy.3 mph87%29.95 "Hg10 mi
4:56 am57 °FLight rain. Overcast.6 mph83%29.94 "Hg10 mi
3:56 am57 °FLight rain. Overcast.6 mph81%29.93 "Hg10 mi
2:56 am57 °FLight rain. Overcast.7 mph78%29.92 "Hg10 mi
1:56 am58 °FOvercast.7 mph75%29.93 "Hg10 mi
12:56 am57 °FMostly cloudy.5 mph74%29.94 "Hg10 mi
11:56 pm
Wed, Feb 22
57 °FOvercast.5 mph74%29.94 "Hg10 mi
10:56 pm57 °FLight rain. Mostly cloudy.3 mph72%29.95 "Hg10 mi
9:56 pm55 °FMostly cloudy.3 mph77%29.96 "Hg10 mi
8:56 pm56 °FOvercast.5 mph75%29.97 "Hg10 mi
7:56 pm58 °FMostly cloudy.No wind72%29.97 "Hg10 mi
6:56 pm58 °FOvercast.3 mph72%29.97 "Hg10 mi
5:56 pm60 °FOvercast.3 mph69%29.97 "Hg10 mi
4:56 pm60 °FMore clouds than sun.5 mph69%29.97 "Hg10 mi
3:56 pm64 °FLight rain. Mostly cloudy.No wind56%29.96 "Hg10 mi
2:56 pm66 °FMostly cloudy.7 mph54%29.95 "Hg10 mi
1:56 pm67 °FCloudy.8 mph51%29.96 "Hg10 mi
Weather by CustomWeather, © 2017

See weather overviewHow to use our weather pages